Wind_Speed
8 9 8 8 8 8 8 8 8 8 8 9 8 9 10 10 10 10 11 12 13 13 14 14 14 14 14 14 13 14 14 14 15 14 15 15 14 14 14 14 14 14 15 15
9 9 9 9 9 9 9 9 9 9 9 9 9 10 10 10 10 11 12 13 13 14 14 14 15 14 14 14 14 14 14 14 14 14 14 15 15 15 15 15 15 15 15 16
9 9 9 9 9 9 9 9 9 9 9 9 10 10 10 10 11 12 12 12 12 13 14 15 14 14 14 14 14 14 14 14 14 14 15 15 15 15 15 15 15 16 16 16
9 9 9 9 9 9 10 9 9 9 9 10 10 10 10 10 11 12 12 12 12 13 14 14 14 14 14 14 14 14 14 14 14 14 15 15 15 15 15 15 15 16 16 16
9 9 9 9 9 10 10 9 10 10 10 10 10 11 10 11 11 12 12 12 12 13 13 14 14 14 14 14 13 14 14 15 15 14 14 14 15 15 16 16 16 16 16 15
10 10 10 9 10 10 10 10 10 10 10 11 11 12 11 11 12 12 12 13 13 13 13 13 13 13 14 14 14 15 15 15 15 14 14 14 15 15 16 17 17 16 16 16
11 11 10 10 10 10 10 10 10 10 11 11 11 12 12 12 12 12 12 12 13 13 13 13 14 14 15 15 15 16 16 16 15 15 16 16 15 16 16 17 17 17 17 17
12 11 11 11 11 11 11 11 11 11 12 12 12 12 13 13 13 13 13 13 13 13 13 14 14 15 15 16 16 16 16 17 17 17 17 17 17 17 17 18 18 19 18 18
13 12 12 12 12 12 12 12 12 12 12 13 12 12 14 14 13 13 13 13 14 14 14 14 14 15 16 16 16 16 16 17 17 17 17 17 17 17 18 18 18 19 19 19
14 14 13 13 13 13 13 13 13 13 13 13 13 13 14 13 13 13 14 14 14 14 14 14 14 14 15 15 16 16 16 16 16 17 17 18 18 18 18 18 18 19 19 19
15 15 15 14 14 13 14 14 14 14 14 14 14 15 14 14 13 14 14 15 15 15 15 15 15 15 15 16 16 16 16 17 17 17 17 17 18 18 18 18 18 19 19 19
16 16 16 16 15 15 15 15 15 15 15 15 15 15 14 14 15 15 15 16 16 16 16 16 16 16 17 17 17 17 17 17 17 17 17 17 18 18 19 19 19 19 19 20
17 17 17 17 17 16 16 16 16 16 16 16 16 16 16 16 16 16 17 17 17 18 17 17 17 17 18 18 18 18 18 18 17 18 18 18 18 18 18 19 19 20 20 20
19 19 19 18 18 18 18 18 18 18 18 18 17 17 17 17 17 17 17 17 18 18 18 18 18 19 19 19 19 19 19 18 18 18 19 19 19 19 19 19 20 20 20 20
20 20 20 20 19 19 19 19 19 19 19 19 18 17 17 18 18 18 18 18 17 18 18 19 19 19 19 19 19 19 19 19 19 20 20 20 20 20 20 20 20 20 20 20
21 21 21 21 21 21 21 20 20 20 20 20 19 18 18 19 19 18 18 18 18 19 19 20 20 19 19 20 20 20 20 20 20 20 20 20 20 20 20 19 20 20 20 20
22 22 22 22 22 23 22 21 21 21 21 21 20 19 19 19 19 19 19 19 19 20 20 20 20 20 20 20 20 20 20 20 20 21 20 20 20 20 20 20 20 20 19 19
23 23 23 23 23 24 22 22 22 22 21 21 21 20 20 20 19 20 20 20 20 20 21 21 20 20 20 20 20 19 20 20 20 20 20 20 20 19 19 20 19 19 20 20
23 24 24 24 25 25 23 22 22 22 22 22 22 22 21 21 21 21 21 21 21 21 21 21 21 20 20 20 20 20 20 20 20 20 20 20 19 19 19 19 19 20 20 20
24 25 25 25 26 26 24 24 24 24 24 23 23 22 22 22 22 21 22 22 21 21 20 20 20 20 21 21 20 20 20 21 20 20 20 20 20 19 19 20 20 20 20 21
26 26 27 27 27 27 25 24 24 25 24 24 23 22 22 22 22 22 22 22 22 21 21 21 20 20 21 21 21 21 21 21 21 20 20 20 20 20 20 20 20 21 21 21
28 28 28 28 27 27 25 25 25 25 26 25 24 24 23 23 23 22 22 22 22 22 22 22 21 21 21 22 22 22 22 22 22 21 21 21 21 21 21 21 21 21 21 21
29 29 29 29 28 27 27 27 26 27 27 26 25 25 25 24 23 23 23 23 23 23 23 23 23 22 22 22 22 22 22 22 22 22 22 22 22 21 22 22 22 22 22 22
30 30 30 30 29 29 29 28 28 27 28 27 27 26 26 25 24 24 24 23 24 24 24 24 24 23 23 23 23 23 22 22 22 22 22 23 23 22 22 23 22 22 22 23
30 30 30 31 30 29 29 28 28 28 28 28 28 27 26 26 25 25 25 25 25 25 25 25 25 24 23 23 23 23 23 23 23 23 23 23 24 24 24 23 23 23 23 23
28 29 30 30 29 30 28 27 27 28 28 28 28 28 27 27 26 26 26 26 26 26 26 25 25 25 24 24 24 24 24 24 24 24 23 24 24 24 24 23 23 24 24 24
Wind_Direction
268 266 264 258 256 257 257 259 261 262 262 264 264 267 270 274 278 282 284 286 286 287 287 287 286 286 286 285 285 285 283 281 280 278 277 275 273 273 271 272 271 268 262 261
266 264 261 259 259 258 259 259 264 266 266 267 269 272 273 274 276 280 285 285 285 284 284 287 287 286 286 286 286 285 284 281 279 278 277 276 273 272 273 273 272 269 266 264
263 263 261 258 259 260 260 262 265 267 269 271 272 272 274 276 275 278 284 288 287 284 287 289 287 288 288 288 287 285 284 283 283 281 279 278 274 274 274 273 271 270 267 269
260 260 260 258 257 260 262 264 266 266 268 271 273 274 275 277 279 282 285 288 291 289 289 288 287 287 288 288 286 285 285 285 285 284 282 280 277 276 275 273 271 271 270 269
260 261 258 256 256 257 260 264 266 267 269 271 272 271 273 277 281 285 285 288 291 290 290 289 287 290 292 290 287 286 285 286 286 285 283 280 277 277 277 273 271 271 269 266
259 261 258 257 257 259 263 266 268 268 269 270 273 273 273 278 283 286 288 290 291 289 289 289 291 294 295 289 285 285 285 286 286 284 284 282 279 279 277 273 270 268 266 266
257 259 257 257 257 260 263 266 269 270 269 269 274 274 275 279 283 286 289 291 292 292 290 290 292 293 292 289 287 286 284 284 284 284 283 281 279 277 276 273 269 267 266 265
258 260 259 257 259 263 265 265 264 268 270 273 274 274 278 282 285 288 291 292 294 294 293 292 293 293 291 291 288 286 284 283 282 282 282 280 278 276 275 273 271 269 268 268
257 260 261 261 261 264 267 266 265 268 270 271 273 276 280 283 286 289 290 292 296 296 296 295 295 295 292 289 286 285 285 285 284 283 282 280 279 277 276 274 271 268 266 266
257 259 262 263 263 263 267 270 268 269 272 273 275 276 281 283 285 288 289 292 296 297 297 297 297 298 295 293 289 287 286 288 288 286 283 282 280 278 276 275 272 269 267 267
255 259 262 263 264 265 266 268 269 271 272 274 279 280 279 282 284 286 289 293 295 295 294 295 296 296 298 296 291 288 288 289 289 288 285 283 281 279 277 275 274 271 269 268
254 257 262 264 263 264 266 268 269 271 273 275 279 281 279 280 284 286 288 291 293 292 293 295 297 297 297 296 292 289 289 289 289 287 286 285 282 281 280 276 275 272 272 271
254 256 260 263 263 262 264 267 269 271 273 276 281 283 281 281 284 286 287 289 291 293 293 295 298 298 297 296 294 291 290 289 289 288 287 286 283 282 281 278 276 274 274 274
254 256 257 260 263 264 264 266 268 270 272 276 278 278 279 279 282 284 286 288 290 293 293 294 296 297 296 294 294 292 289 288 288 288 288 287 283 282 281 279 279 277 276 276
254 257 257 259 262 263 264 267 268 269 272 275 276 276 276 280 281 283 284 285 287 290 292 292 294 295 296 294 292 292 290 289 289 289 289 288 287 283 280 278 278 278 276 275
255 258 260 260 262 263 264 266 268 270 273 275 276 275 276 278 279 280 280 282 283 286 289 290 292 293 294 294 291 291 291 290 289 289 289 288 288 283 280 279 279 278 278 276
257 259 261 262 263 265 264 265 267 270 273 274 275 275 275 276 277 277 278 280 282 283 286 289 290 291 293 294 293 291 290 292 290 288 288 289 289 285 281 280 280 278 278 277
258 259 261 262 263 264 266 266 267 269 271 273 274 274 274 275 276 277 278 280 282 283 286 289 291 292 293 294 293 292 291 292 293 291 290 291 290 287 283 282 281 278 277 277
258 259 260 261 262 264 265 267 268 269 269 271 272 273 273 273 274 275 277 280 283 285 286 288 290 291 291 291 291 290 292 294 295 294 290 289 289 287 285 283 282 280 278 279
258 259 260 261 263 264 266 267 267 269 270 270 272 272 272 274 274 275 277 281 283 284 285 287 289 290 290 289 288 288 290 293 294 293 289 287 287 287 286 284 283 282 281 281
259 259 260 262 263 264 266 268 268 269 270 269 270 270 271 273 274 276 277 280 282 282 284 286 288 289 290 289 287 287 289 291 292 292 290 287 286 285 285 284 284 283 283 281
261 261 262 262 263 265 267 267 267 267 268 270 271 272 272 272 274 275 277 278 279 281 284 286 288 288 289 289 288 287 288 290 292 293 292 289 286 284 284 284 284 283 283 281
261 262 262 262 264 266 266 267 267 266 267 269 270 271 272 273 274 275 276 277 278 280 283 286 287 287 288 287 288 288 288 289 291 291 291 290 288 285 285 285 284 284 283 282
261 262 261 261 263 263 264 264 265 266 267 267 268 269 270 272 273 274 276 277 278 280 283 285 286 285 286 286 287 288 289 290 290 291 291 290 290 288 286 285 283 282 283 283
262 262 261 260 261 263 264 264 264 266 267 267 268 268 270 272 272 273 274 276 278 279 280 283 285 284 284 285 285 287 289 289 291 292 293 291 289 290 288 284 283 283 282 283
262 261 261 261 261 264 265 265 263 263 265 267 269 269 269 272 273 273 273 275 276 278 279 280 282 282 283 284 284 285 286 286 288 290 291 290 290 288 287 285 283 283 283 283
Height
5869 5870 5869 5870 5870 5870 5870 5871 5871 5871 5870 5870 5870 5870 5869 5869 5868 5868 5867 5866 5865 5864 5863 5862 5861 5860 5859 5858 5857 5856 5855 5854 5853 5853 5852 5851 5851 5850 5850 5849 5849 5848 5848 5848
5867 5867 5867 5867 5867 5868 5868 5868 5868 5868 5868 5868 5868 5867 5867 5866 5866 5865 5864 5863 5862 5861 5860 5859 5858 5857 5855 5854 5854 5853 5852 5851 5850 5849 5848 5848 5847 5846 5846 5846 5845 5845 5844 5844
5864 5865 5864 5865 5865 5865 5865 5866 5866 5866 5866 5865 5866 5865 5865 5864 5863 5862 5861 5860 5859 5858 5857 5856 5855 5853 5852 5851 5850 5849 5848 5848 5847 5846 5845 5844 5843 5842 5842 5842 5841 5841 5841 5840
5861 5861 5862 5862 5862 5862 5863 5863 5864 5863 5864 5863 5864 5863 5862 5861 5860 5859 5858 5857 5856 5855 5854 5853 5852 5850 5849 5848 5847 5845 5844 5844 5843 5842 5841 5840 5840 5839 5838 5838 5838 5837 5837 5837
5858 5858 5859 5859 5860 5860 5860 5861 5861 5861 5861 5861 5861 5861 5860 5859 5858 5857 5855 5854 5853 5852 5851 5850 5848 5847 5846 5845 5843 5842 5841 5840 5839 5838 5837 5836 5836 5835 5834 5834 5834 5833 5833 5833
5855 5855 5856 5857 5857 5857 5858 5858 5858 5858 5858 5859 5858 5858 5857 5856 5855 5854 5852 5851 5850 5849 5848 5846 5845 5844 5843 5841 5840 5839 5837 5836 5835 5834 5833 5832 5832 5831 5830 5830 5829 5829 5829 5829
5852 5852 5853 5853 5854 5854 5855 5856 5856 5856 5855 5856 5855 5854 5854 5852 5851 5850 5849 5848 5846 5845 5844 5843 5842 5840 5839 5837 5836 5835 5833 5832 5831 5830 5829 5828 5827 5827 5826 5825 5825 5825 5825 5824
5849 5850 5850 5850 5851 5851 5852 5853 5854 5854 5853 5853 5851 5850 5851 5849 5848 5847 5846 5844 5843 5842 5841 5839 5837 5836 5834 5833 5832 5830 5829 5828 5827 5826 5824 5824 5823 5822 5821 5821 5820 5820 5820 5820
5845 5847 5847 5847 5847 5848 5848 5848 5849 5850 5849 5849 5848 5848 5847 5846 5845 5843 5842 5841 5840 5838 5837 5835 5834 5832 5830 5829 5827 5826 5824 5823 5822 5820 5820 5819 5818 5817 5817 5816 5815 5815 5815 5815
5841 5843 5843 5843 5844 5844 5845 5845 5845 5845 5845 5845 5845 5844 5844 5842 5841 5840 5839 5837 5836 5834 5833 5831 5830 5828 5826 5824 5823 5821 5820 5818 5817 5816 5814 5813 5813 5812 5811 5811 5810 5810 5810 5810
5837 5838 5839 5839 5839 5840 5840 5841 5840 5841 5841 5841 5841 5842 5840 5838 5837 5836 5835 5833 5832 5830 5829 5827 5825 5824 5822 5820 5818 5816 5815 5813 5812 5811 5809 5808 5807 5807 5806 5806 5805 5805 5805 5804
5832 5834 5834 5835 5835 5835 5836 5836 5837 5837 5837 5836 5836 5839 5835 5834 5833 5832 5830 5829 5827 5826 5824 5822 5821 5819 5817 5815 5813 5811 5810 5809 5807 5806 5804 5803 5802 5801 5801 5800 5800 5799 5799 5799
5827 5829 5830 5830 5832 5832 5831 5831 5832 5832 5832 5832 5832 5834 5830 5829 5828 5827 5825 5824 5822 5821 5819 5818 5816 5814 5812 5810 5808 5807 5805 5804 5802 5801 5799 5798 5797 5796 5795 5795 5794 5794 5793 5793
5822 5823 5825 5826 5826 5826 5826 5826 5826 5827 5826 5827 5827 5827 5825 5824 5823 5822 5821 5819 5818 5816 5815 5813 5811 5809 5807 5805 5803 5801 5800 5798 5797 5796 5794 5793 5791 5790 5790 5789 5788 5788 5788 5787
5816 5817 5818 5819 5820 5820 5820 5821 5821 5821 5821 5821 5822 5821 5820 5819 5818 5817 5815 5814 5813 5811 5810 5808 5806 5804 5802 5800 5798 5796 5794 5793 5792 5790 5789 5787 5786 5784 5783 5783 5782 5782 5782 5781
5810 5811 5812 5813 5813 5814 5814 5815 5815 5815 5815 5815 5815 5815 5814 5813 5812 5811 5810 5809 5808 5806 5804 5802 5800 5798 5796 5794 5792 5791 5789 5787 5786 5784 5783 5781 5780 5778 5777 5777 5776 5776 5775 5775
5804 5805 5806 5807 5807 5807 5808 5810 5809 5810 5810 5809 5809 5810 5808 5807 5806 5805 5804 5803 5802 5800 5799 5797 5795 5793 5791 5789 5787 5785 5783 5782 5780 5778 5777 5775 5774 5772 5771 5771 5770 5770 5770 5769
5798 5798 5799 5800 5801 5801 5805 5803 5803 5803 5803 5803 5802 5802 5802 5801 5800 5799 5798 5797 5795 5794 5792 5791 5789 5787 5785 5783 5781 5779 5778 5776 5774 5772 5771 5769 5768 5766 5765 5765 5764 5764 5764 5763
5791 5792 5792 5793 5793 5794 5797 5796 5796 5796 5796 5796 5796 5795 5795 5794 5794 5793 5791 5790 5789 5788 5786 5785 5783 5781 5779 5777 5775 5774 5772 5770 5769 5767 5765 5764 5762 5761 5760 5759 5758 5758 5757 5756
5784 5784 5786 5785 5786 5787 5790 5789 5788 5789 5789 5789 5789 5788 5788 5788 5787 5787 5785 5784 5782 5781 5780 5778 5777 5775 5773 5771 5769 5768 5766 5764 5763 5761 5759 5758 5757 5755 5754 5753 5752 5752 5751 5750
5776 5776 5777 5778 5777 5779 5781 5781 5781 5783 5783 5781 5781 5781 5781 5780 5780 5780 5778 5777 5776 5775 5773 5772 5770 5769 5767 5765 5763 5762 5760 5758 5757 5755 5753 5752 5751 5750 5748 5747 5746 5745 5744 5743
5768 5768 5769 5770 5770 5774 5773 5773 5774 5774 5773 5773 5773 5773 5773 5773 5773 5772 5771 5770 5769 5768 5767 5765 5764 5762 5760 5758 5757 5755 5754 5752 5750 5749 5747 5746 5744 5743 5742 5741 5739 5738 5737 5736
5759 5761 5761 5762 5764 5765 5764 5764 5765 5765 5765 5765 5765 5765 5766 5765 5765 5765 5764 5763 5762 5761 5760 5758 5757 5756 5754 5752 5750 5749 5748 5746 5744 5743 5741 5739 5738 5736 5735 5734 5732 5731 5730 5729
5750 5751 5752 5752 5754 5755 5755 5755 5756 5756 5756 5756 5757 5757 5757 5757 5757 5757 5757 5756 5755 5754 5753 5751 5750 5749 5747 5745 5744 5742 5741 5739 5738 5736 5734 5732 5731 5729 5728 5726 5725 5724 5723 5722
5741 5742 5742 5743 5745 5745 5746 5747 5747 5747 5747 5747 5748 5748 5749 5749 5749 5749 5749 5748 5747 5746 5745 5744 5743 5742 5740 5738 5737 5735 5734 5732 5731 5729 5727 5726 5724 5722 5721 5719 5718 5717 5716 5714
5732 5733 5733 5734 5736 5736 5737 5738 5738 5738 5738 5739 5739 5739 5740 5740 5741 5741 5740 5740 5739 5738 5737 5736 5735 5734 5733 5731 5730 5728 5726 5725 5723 5722 5720 5718 5716 5715 5713 5712 5711 5709 5708 5707